sat.trackr.live / text

‹ back to catalog

STARLINK-35797

NORAD 66364 · 2025-254S

PAYLOAD ACTIVE UNKNOWN

§ Identity

Operator
Country
US
Launch date
2025-11-06
Launch site
AFWTR
Launch vehicle
Mass (kg)
RCS (m²)

Purposes: comms

External: N2YO · Heavens-Above · Gunter

§ Orbital elements

Epoch: 2026-05-24T18:54:18.929376Z

Period
94.10 min
Inclination
53.1581°
Eccentricity
0.0001060
Mean motion
15.30207797 rev/d
Perigee alt
474.5 km
Apogee alt
475.9 km
Semi-major
6,853.3 km
B*
4.5668e-4
RAAN
239.1964°
Arg perigee
63.0823°
Mean anomaly
297.0286°
Rev number
3,062

§ Raw data

STARLINK-357971 66364U 25254S   26144.78771909  .00013194  00000+0  45668-3 0  99972 66364  53.1581 239.1964 0001060  63.0823 297.0286 15.30207797 30629

JSON: /api/v1/satellites/66364 · /tle

For live sub-satellite position, see the globe view (requires WebGL).

§ Visibility from observer

Set your observer location to see the next 7 days of passes ≥ 10°. The values pass through the URL so the page stays shareable.

No JS? Fill the form by hand. The geolocation button needs JavaScript.